DW7572 Weather Reports


time (UTC)temp
F
wind
direction
speed
knots
gust
knots
rain 1hr
in
rain 24hr
in
rain mn
in
humidity
%
barometer
mb
20210122053026 10 315 13.0 17.4 0.00 0.00 0.00 82 1020.2
20210122050030 11 315 14.8 19.1 0.00 0.00 0.00 82 1019.9
20210122043022 11 315 13.9 19.1 0.00 0.00 0.00 82 1019.7
20210122040025 12 315 15.6 21.7 0.00 0.00 0.00 81 1019.4
20210122033021 12 315 16.5 24.3 0.00 0.00 0.00 80 1018.9
20210122030023 13 315 18.2 25.2 0.00 0.00 0.00 80 1018.1
20210122023024 14 315 19.1 26.1 0.00 0.00 0.00 80 1017.7
20210122020035 15 315 20.9 27.8 0.00 0.00 0.00 78 1017.2
20210122013025 16 315 19.1 26.1 0.00 0.00 0.00 77 1016.6
20210122010025 18 315 20.0 26.9 0.00 0.00 0.00 78 1016.0
20210122003031 19 315 21.7 31.3 0.00 0.00 0.00 77 1015.5
20210122000033 20 315 20.9 29.5 0.00 0.00 0.00 76 1015.2
20210121233035 21 315 20.9 29.5 0.00 0.00 0.00 78 1014.5
20210121230022 22 315 19.1 27.8 0.00 0.00 0.00 79 1014.0
20210121223021 23 315 20.0 26.9 0.00 0.00 0.00 79 1013.5
20210121220030 26 315 20.0 27.8 0.00 0.00 0.00 77 1012.8
20210121213021 27 315 20.0 30.4 0.00 0.00 0.00 78 1012.4
20210121203024 31 315 21.7 33.0 0.00 0.00 0.00 81 1011.3
20210121200026 33 315 19.1 27.8 0.00 0.00 0.00 85 1010.6
20210121193033 33 315 20.0 26.9 0.00 0.00 0.00 84 1010.2
20210121190025 33 315 17.4 26.1 0.00 0.00 0.00 82 1010.0
20210121183036 34 315 17.4 26.9 0.00 0.01 0.00 79 1009.9
20210121180024 34 315 18.2 27.8 0.00 0.01 0.00 79 1010.0
20210121173032 34 293 16.5 25.2 0.00 0.01 0.00 78 1009.9
20210121170026 33 293 15.6 22.6 0.00 0.01 0.00 77 1009.7
20210121093032 30 270 0.9 5.2 0.00 0.01 0.00 79 1007.9
20210121090025 31 270 0.9 7.0 0.00 0.01 0.00 79 1008.0
20210121083039 31 270 0.9 7.8 0.00 0.01 0.00 77 1007.6